Other Public Products
Issued by NWS Charleston, SC

Current Version | Previous Version | Graphics & Text | Print | Product List | Glossary On
Versions: 1 2 3 4 5 6 7 8 9 10 11 12 13 14 15 16 17 18 19 20 21 22 23 24 25 26 27 28 29 30 31 32 33 34 35 36 37 38 39 40 41 42 43 44 45 46 47 48 49 50
000
FPUS82 KCHS 200924
OPUCHS

TEST...KCHS/KSAV Gateway Observations...TEST
National Weather Service Charleston SC
500 AM EDT WED SEP 20 2017

NOTE: "fair" indicates few or no clouds below 12,000 feet with no
significant weather and/or obstructions to visibility.

SCZ050-WAZ558-NCZ071-TXZ119-213-PAZ071-DCZ001-FLZ074-172-MI076-
NYZ176-178-MAZ016-IL014-TNZ027-NJZ106-GAZ044-MD014-201000-

...Gateway Observations for Charleston International...

CITY           SKY/WX    TMP DP  RH WIND       PRES   REMARKS
Chas Airport   PTCLDY    73  72  96 CALM      29.98S FOG
Seattle        MOCLDY    52  46  80 E6        29.66F
Charlotte      PTCLDY    68  68 100 CALM      29.99S
Dallas DFW     PTCLDY    82  72  71 S17       29.81F
Dallas Love    PTCLDY    81  71  71 S13       29.83F
Philladelphia  PTCLDY    71  63  75 N13       29.84F
Wash National  PTCLDY    71  64  78 NW10      29.91F
Baltimore      CLOUDY    71  65  81 NW5       29.89S
Miami          PTCLDY    82  77  84 CALM      29.94S HX  90
Detroit        FOG       66  66 100 E3        29.95S VSB 1/4
Newark         CLOUDY    71  63  75 N16       29.82R
Laguardia      CLOUDY    72  65  78 N13G21    29.80R
J F K          MOCLDY    72  64  76 N17       29.80R
Boston Logan   LGT RAIN  64  64 100 N21       29.88F FOG
Ft. Lauderdale PTCLDY    79  78  97 CALM      29.93S
Chicago O`Hare CLEAR     64  62  93 SE3       29.91R FOG
Chicago Midway CLEAR     67  65  93 SE6       29.91R
Houston Bush   CLOUDY    80  76  87 S3        29.89S
Houston Hobby  CLOUDY    80  76  87 S5        29.89S
Nashville      CLEAR     69  65  86 CALM      29.98S
Atlanta        CLEAR     70  67  90 NW6       30.01R

$$

GAZ044-118-TXZ119-213-NCZ071-DCZ001-MDZ014-506-PAZ021-071-NJZ106-
NYZ176-178-MAZ106-OHZ011-021-055-MIZ076-KYZ091-ILZ014-INZ047-
MNZ060-ONZ431-201000-

...Gateway Observations for Savannah International...

CITY           SKY/WX    TMP DP  RH WIND       PRES   REMARKS
Savannah Arpt  CLOUDY    75  72  90 SW6       29.99R
Atlanta        CLEAR     70  67  90 NW6       30.01R
Charlotte      PTCLDY    68  68 100 CALM      29.99S
Dallas DFW     PTCLDY    82  72  71 S17       29.81F
Houston Bush   CLOUDY    80  76  87 S3        29.89S
Wash National  PTCLDY    71  64  78 NW10      29.91F
Wash Dulles    PTCLDY    63  63 100 N3        29.94S
Baltimore      CLOUDY    71  65  81 NW5       29.89S
Philadelphia   PTCLDY    71  63  75 N13       29.84F
Newark         CLOUDY    71  63  75 N16       29.82R
Laguardia      CLOUDY    72  65  78 N13G21    29.80R
J F K          MOCLDY    72  64  76 N17       29.80R
Boston         LGT RAIN  64  64 100 N21       29.88F FOG
Pittsburg      CLOUDY    64  61  90 CALM      29.99S
Akron          CLOUDY    67  63  87 N3        29.99S
Cleveland      CLOUDY    70  65  84 CALM      29.99R
Cincinnati     PTCLDY    62  62 100 S5        29.98R FOG
Columbus       CLOUDY    65  65 100 CALM      29.98R
Detroit        FOG       66  66 100 E3        29.95S VSB 1/4
Chicago O`Hare CLEAR     64  62  93 SE3       29.91R FOG
Minneapolis    CLOUDY    72  68  87 S13       29.62S
Indianapolis   PTCLDY    68  66  93 SE7       29.94S
Toronto Canada CLEAR     66  61  82 NE5       30.01R

$$




USA.gov is the U.S. government's official web portal to all federal, state and local government web resources and services.